Weather History for Frenchville, ME

Change the Weather History Date:

Friday, November 1, 2013

  Actual Average Record
Temperature  
Mean Temperature 53 °F 36 °F  
Max Temperature 60 °F 43 °F 61 °F (2003)
Min Temperature 46 °F 30 °F 25 °F (1996)
Degree Days  
Heating Degree Days 12    
Month to date heating degree days 12  
Since 1 July heating degree days 1083  
Cooling Degree Days 0    
Month to date cooling degree days 0  
Year to date cooling degree days 139  
Growing Degree Days 3 (Base 50)    
Moisture  
Dew Point 51 °F    
Average Humidity 89    
Maximum Humidity 100    
Minimum Humidity 57    
Precipitation  
Precipitation 0.17 in 0.09 in 0.17 in (2013)
Month to date precipitation 0.17 0.09  
Year to date precipitation 30.60 28.21  
Sea Level Pressure  
Sea Level Pressure 29.26 in    
Wind  
Wind Speed 17 mph (South)    
Max Wind Speed 35 mph    
Max Gust Speed 51 mph    
Visibility 5 miles    
Events Fog , Rain    
T = Trace of Precipitation, MM = Missing Value Source: NWS Daily Summary

Daily Weather History Graph

Daily Weather History Graph

Search for Another Location

Airport:

Trip Planner

Search our weather history database for the weather conditions in past years. The results will help you decide how hot, cold, wet, or windy it might be!

Date:

Astronomy

Nov. 01, 2013 Rise Set
Actual Time 7:16 AM EDT 5:16 PM EDT
Civil Twilight 6:44 AM EDT 5:48 PM EDT
Nautical Twilight 6:08 AM EDT 6:24 PM EDT
Astronomical Twilight 5:33 AM EDT 6:59 PM EDT
Moon 4:57 AM EDT (11/1) 4:12 PM EDT (11/1)
Length of Visible Light 11h 03m
Length of Day
9h 59m
Waning Crescent, 4% of the Moon is Illuminated
Nov 1
Waning Crescent
Nov 3
New
Nov 10
First Quarter
Nov 17
Full
Nov 25
Last Quarter

Hourly Weather History & Observations

Time (EDT) Temp. Windchill Dew Point Humidity Pressure Visibility Wind Dir Wind Speed Gust Speed Precip Events Conditions
12:53 AM 46.0 °F 41.0 °F 45.0 °F 96% 29.58 in 0.5 mi South 10.4 mph - 0.01 in Fog , Rain Light Rain
1:53 AM 48.0 °F - 46.9 °F 96% 29.56 in 0.5 mi South 10.4 mph - 0.00 in Fog Fog
2:53 AM 48.9 °F - 46.9 °F 93% 29.53 in 0.5 mi South 11.5 mph - 0.00 in Fog , Rain Light Rain
3:53 AM 48.9 °F - 48.0 °F 97% 29.48 in 0.5 mi South 11.5 mph 20.7 mph 0.01 in Fog , Rain Light Rain
4:53 AM 50.0 °F - 48.9 °F 96% 29.45 in 1.0 mi South 12.7 mph - 0.02 in Rain Light Rain
5:10 AM 50.0 °F - 48.2 °F 94% 29.43 in 1.5 mi South 12.7 mph - 0.00 in   Overcast
5:29 AM 51.8 °F - 48.2 °F 88% 29.42 in 1.8 mi SSE 11.5 mph - 0.00 in   Overcast
5:38 AM 51.8 °F - 50.0 °F 94% 29.41 in 2.5 mi SSE 12.7 mph 18.4 mph 0.00 in   Overcast
5:45 AM 51.8 °F - 50.0 °F 94% 29.41 in 1.5 mi South 10.4 mph - 0.00 in   Overcast
5:53 AM 51.1 °F - 50.0 °F 96% 29.42 in 1.0 mi South 11.5 mph - 0.00 in   Mist
6:24 AM 51.8 °F - 50.0 °F 94% 29.38 in 0.8 mi South 11.5 mph - N/A   Mist
6:53 AM 52.0 °F - 51.1 °F 97% 29.37 in 0.5 mi South 11.5 mph - N/A Fog Fog
7:37 AM 51.8 °F - 51.8 °F 100% 29.35 in 1.5 mi South 13.8 mph 20.7 mph 0.01 in Rain Light Rain
7:40 AM 51.8 °F - 51.8 °F 100% 29.34 in 2.0 mi South 11.5 mph 20.7 mph 0.01 in Rain Light Rain
7:49 AM 53.6 °F - 51.8 °F 94% 29.34 in 3.0 mi South 13.8 mph - 0.02 in Rain Light Rain
7:53 AM 53.1 °F - 51.1 °F 93% 29.35 in 4.0 mi South 13.8 mph 21.9 mph 0.02 in Rain Light Rain
8:13 AM 53.6 °F - 51.8 °F 94% 29.33 in 2.5 mi South 15.0 mph 24.2 mph 0.01 in Rain Light Rain
8:21 AM 53.6 °F - 51.8 °F 94% 29.33 in 1.5 mi South 12.7 mph 21.9 mph 0.01 in Rain Light Rain
8:28 AM 53.6 °F - 51.8 °F 94% 29.32 in 2.0 mi South 15.0 mph 21.9 mph 0.02 in Rain Light Rain
8:37 AM 53.6 °F - 51.8 °F 94% 29.32 in 3.0 mi South 13.8 mph 20.7 mph 0.03 in Rain Light Rain
8:51 AM 53.6 °F - 51.8 °F 94% 29.31 in 1.8 mi South 11.5 mph 20.7 mph 0.04 in Rain Light Rain
8:52 AM 53.1 °F - 52.0 °F 96% 29.32 in 1.8 mi South 13.8 mph 20.7 mph 0.04 in Rain Light Rain
9:01 AM 53.6 °F - 51.8 °F 94% 29.30 in 3.0 mi South 16.1 mph 21.9 mph 0.01 in Rain Light Rain
9:19 AM 53.6 °F - 51.8 °F 94% 29.29 in 1.8 mi South 13.8 mph 21.9 mph 0.02 in Rain Light Rain
9:24 AM 53.6 °F - 51.8 °F 94% 29.28 in 1.2 mi South 13.8 mph 21.9 mph 0.02 in Rain Light Rain
9:34 AM 53.6 °F - 51.8 °F 94% 29.28 in 1.8 mi South 15.0 mph 21.9 mph 0.03 in Rain Light Rain
9:38 AM 53.6 °F - 51.8 °F 94% 29.28 in 1.2 mi South 11.5 mph 20.7 mph 0.03 in Rain Light Rain
9:53 AM 54.0 °F - 53.1 °F 97% 29.27 in 0.8 mi South 13.8 mph 23.0 mph 0.05 in Rain Light Rain
10:14 AM 53.6 °F - 53.6 °F 100% 29.24 in 1.5 mi South 13.8 mph 25.3 mph 0.01 in Rain Light Rain
10:23 AM 53.6 °F - 53.6 °F 100% 29.23 in 2.0 mi South 17.3 mph 24.2 mph 0.02 in Rain Light Rain
10:37 AM 53.6 °F - 53.6 °F 100% 29.22 in 5.0 mi South 18.4 mph 24.2 mph 0.02 in Rain Light Rain
10:53 AM 55.0 °F - 53.1 °F 93% 29.22 in 10.0 mi South 17.3 mph 24.2 mph 0.02 in   Overcast
11:53 AM 55.9 °F - 54.0 °F 93% 29.19 in 10.0 mi South 17.3 mph 26.5 mph 0.01 in   Overcast
12:42 PM 57.2 °F - 55.4 °F 94% 29.15 in 10.0 mi South 17.3 mph 24.2 mph N/A   Overcast
12:53 PM 57.0 °F - 55.0 °F 93% 29.15 in 10.0 mi South 15.0 mph 29.9 mph N/A   Overcast
1:49 PM 60.8 °F - 55.4 °F 82% 29.14 in 10.0 mi South 17.3 mph 29.9 mph 0.00 in   Overcast
1:53 PM 60.1 °F - 55.9 °F 86% 29.14 in 10.0 mi South 16.1 mph 28.8 mph 0.00 in   Overcast
2:21 PM 59.0 °F - 55.4 °F 88% 29.04 in 10.0 mi SSE 23.0 mph 28.8 mph N/A   Overcast
2:37 PM 59.0 °F - 55.4 °F 88% 29.05 in 10.0 mi South 19.6 mph 29.9 mph N/A   Scattered Clouds
2:53 PM 59.0 °F - 55.9 °F 90% 29.06 in 10.0 mi SSW 15.0 mph 25.3 mph N/A   Scattered Clouds
3:08 PM 59.0 °F - 55.4 °F 88% 29.06 in 10.0 mi South 12.7 mph - N/A   Mostly Cloudy
3:53 PM 60.1 °F - 55.9 °F 86% 29.06 in 10.0 mi South 17.3 mph 26.5 mph N/A   Overcast
4:07 PM 60.8 °F - 55.4 °F 82% 29.06 in 10.0 mi South 18.4 mph 29.9 mph N/A   Mostly Cloudy
4:19 PM 60.8 °F - 55.4 °F 82% 29.05 in 10.0 mi South 13.8 mph 24.2 mph N/A   Mostly Cloudy
4:53 PM 60.1 °F - 54.0 °F 80% 29.05 in 10.0 mi South 18.4 mph 25.3 mph N/A   Partly Cloudy
5:53 PM 57.9 °F - 50.0 °F 75% 29.08 in 10.0 mi SSW 20.7 mph 40.3 mph 0.00 in   Mostly Cloudy
6:53 PM 59.0 °F - 46.0 °F 62% 29.09 in 10.0 mi SW 25.3 mph 41.4 mph N/A   Overcast
7:53 PM 57.0 °F - 43.0 °F 59% 29.12 in 10.0 mi SW 24.2 mph 35.7 mph N/A   Overcast
8:53 PM 55.9 °F - 41.0 °F 57% 29.14 in 10.0 mi SW 26.5 mph 38.0 mph 0.00 in   Overcast
9:53 PM 55.0 °F - 39.9 °F 57% 29.14 in 10.0 mi SW 21.9 mph 34.5 mph N/A   Mostly Cloudy
10:53 PM 52.0 °F - 39.0 °F 61% 29.21 in 10.0 mi WSW 20.7 mph 44.9 mph 0.00 in   Overcast
11:53 PM 48.9 °F - 37.9 °F 66% 29.29 in 10.0 mi WSW 19.6 mph 40.3 mph N/A   Overcast